Date,TemperatureHighF,TemperatureAvgF,TemperatureLowF,DewpointHighF,DewpointAvgF,DewpointLowF,HumidityHigh,HumidityAvg,HumidityLow,PressureMaxIn,PressureMinIn,WindSpeedMaxMPH,WindSpeedAvgMPH,GustSpeedMaxMPH,PrecipitationSumIn
2013-2-1,22.5,16.1,10.0,22.3,10.4,4.8,99,78,64,30.12,29.59,8,3,0,0.00
2013-2-2,24.8,17.4,7.3,23.3,14.6,5.0,99,89,72,30.11,29.74,7,2,0,0.00
2013-2-3,31.3,23.7,17.2,30.1,23.1,16.2,99,97,86,29.79,29.57,6,1,0,0.00
2013-2-4,32.4,23.0,16.7,27.2,20.2,13.7,99,89,62,29.86,29.63,4,1,0,0.00
2013-2-5,34.5,30.5,27.5,34.2,30.2,27.3,99,99,99,29.73,29.59,3,0,0,0.16
2013-2-6,36.0,27.6,15.8,31.9,25.3,15.6,99,91,73,30.14,29.78,5,1,0,0.04
2013-2-7,43.5,29.3,13.3,33.4,25.1,13.1,99,86,66,30.10,29.77,3,1,0,0.02
2013-2-8,41.7,33.2,25.7,39.3,32.0,24.7,99,95,84,29.92,29.57,16,4,0,0.14
2013-2-9,34.2,25.3,17.4,24.7,20.1,17.2,99,82,61,30.17,29.92,9,2,0,0.00
2013-2-10,53.1,32.8,14.0,29.2,21.7,13.8,99,69,27,30.15,29.77,7,1,0,0.00
2013-2-11,62.8,49.3,37.9,53.5,40.3,29.4,99,75,37,29.76,29.43,11,4,0,0.08
2013-2-12,41.4,35.9,26.2,30.8,28.8,25.7,98,76,63,29.84,29.68,8,3,0,0.00
2013-2-13,41.4,30.8,22.5,37.3,28.8,22.3,99,93,67,29.71,29.43,3,0,0,0.02
2013-2-14,41.4,34.6,27.5,38.5,32.4,27.3,99,92,76,29.75,29.62,7,2,0,0.17
2013-2-15,41.5,35.2,28.0,38.0,32.7,27.8,99,91,70,29.81,29.67,7,2,0,0.00
2013-2-16,37.2,25.5,16.0,29.1,22.5,15.8,99,89,65,29.82,29.68,4,1,0,0.00
2013-2-17,26.4,19.0,12.9,20.4,14.7,5.3,99,84,64,30.05,29.67,8,2,0,0.00
2013-2-18,44.2,24.7,1.8,34.0,15.8,0.3,98,71,44,30.09,29.67,5,1,0,0.11
2013-2-19,46.6,37.1,25.2,43.4,33.1,18.4,99,86,54,29.71,29.43,11,3,0,0.14
2013-2-20,25.2,20.4,17.8,21.0,15.2,11.6,93,80,63,29.97,29.71,14,4,0,0.00
2013-2-21,28.0,21.2,17.8,22.3,15.6,-99.9,94,81,68,30.11,29.92,7,-8,0,0.00
2013-2-22,37.8,31.2,20.3,35.8,27.9,16.3,99,88,65,30.04,29.76,6,1,0,0.01
2013-2-23,47.8,37.5,31.6,42.3,35.5,28.0,99,93,81,29.79,29.62,4,0,0,0.01
2013-2-24,32.9,29.5,25.7,30.2,26.8,23.7,98,90,75,29.91,29.61,6,1,0,0.00
2013-2-25,42.1,31.8,21.2,28.6,25.2,20.2,98,78,57,30.01,29.84,4,1,0,0.00
2013-2-26,41.0,36.7,31.1,38.7,31.5,23.1,99,82,62,29.86,29.34,7,2,0,0.75
2013-2-27,53.8,37.5,34.5,40.8,32.1,-99.9,99,87,65,29.96,29.33,5,-22,0,0.16
2013-2-28,34.0,32.3,32.1,33.2,28.9,-99.9,97,90,84,29.92,29.57,7,-20,8,0.08